Flint, MI

5:20 PM EDT on October 14, 2019 (GMT -0400)
Bishop International

Weather History for KFNT - July, 2019

Change the Weather History Date:

Monday, July 22, 2019

  Actual Average Record
Temperature  
Mean Temperature 68 °F 71 °F  
Max Temperature 78 °F 82 °F 99 °F (1934)
Min Temperature 57 °F 59 °F 47 °F (1947)
Degree Days  
Heating Degree Days 0 0  
Month to date heating degree days 0 10  
Since 1 June heating degree days 52 76  
Since 1 July heating degree days 0 10  
Cooling Degree Days 3 6  
Month to date cooling degree days 241 132  
Year to date cooling degree days 350 276  
Since 1 June cooling degree days 341 244  
Growing Degree Days 20 (Base 50)    
Moisture  
Dew Point 55 °F    
Average Humidity 65    
Maximum Humidity 86    
Minimum Humidity 43    
Precipitation  
Precipitation 0.00 in 0.12 in 2.10 in (1957)
Month to date precipitation 1.76 2.27  
Year to date precipitation 20.49 16.33  
Snow  
Snow 0.00 in 0.00 in 0.00 in ()
Month to date snowfall 0.0 0.0  
Since 1 June snowfall 0.0 0.0  
Since 1 July snowfall 0.0 0.0  
Snow Depth 0.00 in    
Sea Level Pressure  
Sea Level Pressure 29.97 in    
Wind  
Wind Speed 8 mph (North)    
Max Wind Speed 22 mph    
Max Gust Speed 27 mph    
Visibility 10 miles    
Events      
T = Trace of Precipitation, MM = Missing Value Source: NWS Daily Summary

Daily Weather History Graph

Daily Weather History Graph

Search for Another Location

Airport or City:

Astronomy

Jul. 22, 2019 Rise Set
Actual Time 6:15 AM EDT 9:06 PM EDT
Civil Twilight 5:42 AM EDT 9:39 PM EDT
Nautical Twilight 5:00 AM EDT 10:21 PM EDT
Astronomical Twilight 4:10 AM EDT 11:10 PM EDT
Moon No Moon Rise 11:38 AM EDT (7/22)
Length of Visible Light 15h 57m
Length of Day
14h 50m
Waning Gibbous, 72% of the Moon is Illuminated
Jul 22
Waning Gibbous
Jul 24
Last Quarter
Jul 31
New
Aug 7
First Quarter
Aug 15
Full

Hourly Weather History & Observations

Time (EDT) Temp. Dew Point Humidity Pressure Visibility Wind Dir Wind Speed Gust Speed Precip Events Conditions
12:53 AM 69.1 °F 61.0 °F 75% 29.94 in 10.0 mi SSE 3.5 mph - N/A   Overcast
1:53 AM 68.0 °F 61.0 °F 78% 29.94 in 10.0 mi Calm Calm - N/A   Overcast
2:53 AM 69.1 °F 61.0 °F 75% 29.96 in 10.0 mi NNW 4.6 mph - N/A   Overcast
3:53 AM 68.0 °F 60.1 °F 76% 29.94 in 10.0 mi NNE 3.5 mph - N/A   Mostly Cloudy
4:53 AM 66.9 °F 59.0 °F 76% 29.95 in 10.0 mi NE 6.9 mph - N/A   Clear
5:53 AM 66.0 °F 57.0 °F 73% 29.95 in 10.0 mi NNE 6.9 mph - N/A   Clear
6:53 AM 66.0 °F 57.0 °F 73% 29.96 in 10.0 mi NNE 6.9 mph - N/A   Clear
7:53 AM 66.0 °F 57.0 °F 73% 29.98 in 10.0 mi North 6.9 mph - N/A   Overcast
8:53 AM 68.0 °F 54.0 °F 61% 29.98 in 10.0 mi NNW 6.9 mph - N/A   Partly Cloudy
9:53 AM 71.1 °F 52.0 °F 51% 29.97 in 10.0 mi North 6.9 mph - N/A   Clear
10:53 AM 73.0 °F 53.1 °F 49% 29.96 in 10.0 mi NW 10.4 mph - N/A   Clear
11:53 AM 68.0 °F 51.1 °F 55% 29.98 in 10.0 mi NW 11.5 mph - N/A   Clear
12:53 PM 71.1 °F 53.1 °F 53% 29.98 in 10.0 mi NW 8.1 mph - N/A   Clear
1:53 PM 73.9 °F 53.1 °F 48% 29.97 in 10.0 mi North 15.0 mph 18.4 mph N/A   Clear
2:53 PM 73.9 °F 57.0 °F 55% 29.96 in 10.0 mi North 12.7 mph 24.2 mph N/A   Mostly Cloudy
3:53 PM 75.0 °F 55.9 °F 51% 29.96 in 10.0 mi NNE 13.8 mph 19.6 mph N/A   Mostly Cloudy
4:53 PM 75.9 °F 54.0 °F 46% 29.96 in 10.0 mi NE 16.1 mph - N/A   Mostly Cloudy
5:53 PM 75.0 °F 53.1 °F 46% 29.96 in 10.0 mi NNE 13.8 mph 25.3 mph N/A   Partly Cloudy
6:53 PM 77.0 °F 54.0 °F 45% 29.96 in 10.0 mi NNE 11.5 mph - N/A   Scattered Clouds
7:53 PM 73.9 °F 53.1 °F 48% 29.98 in 10.0 mi North 10.4 mph - N/A   Clear
8:53 PM 71.1 °F 53.1 °F 53% 29.99 in 10.0 mi NNE 6.9 mph - N/A   Clear
9:53 PM 68.0 °F 52.0 °F 56% 30.00 in 10.0 mi North 4.6 mph - 0.00 in   Clear
10:53 PM 61.0 °F 54.0 °F 78% 30.01 in 10.0 mi West 4.6 mph - N/A   Clear
11:53 PM 57.9 °F 53.1 °F 84% 30.01 in 10.0 mi Calm Calm - N/A   Clear